TAM613 SCEL-SBGR

Flight info

Callsign TAM613
Flight time 3h 11m
Altitude 35000
Route NEBEG UL531 ESITO UT652 SIKOB UM400 SAVLU UZ121 BUXUK
Aircraft A21N/M-SDE3FGHIJ2RWY/LB1

Departure

Time 2026-05-04 20:08
Airport Comodoro Arturo Merino Benítez International Airport (SCEL)

Arrival

Time 2026-05-04 23:20
Airport São Paulo/Guarulhos–Governor André Franco Montoro International Airport (SBGR)
Time Latitude Longitude Altitude Speed Heading
2026-05-04 19:35 -33.40361 -70.79022 1566 ft 0 kts 340°
2026-05-04 19:55 -33.40360 -70.79022 1565 ft 0 kts 340°
2026-05-04 19:56 -33.40362 -70.79022 1565 ft 0 kts 340°
2026-05-04 19:56 -33.40371 -70.79018 1565 ft 1 kts 342°
2026-05-04 19:56 -33.40385 -70.79015 1565 ft 2 kts 355°
2026-05-04 19:56 -33.40403 -70.79016 1565 ft 2 kts 29°
2026-05-04 19:57 -33.40415 -70.79032 1565 ft 2 kts 69°
2026-05-04 19:57 -33.40417 -70.79047 1565 ft 0 kts 86°
2026-05-04 19:57 -33.40417 -70.79046 1565 ft 0 kts 86°
2026-05-04 19:58 -33.40417 -70.79036 1565 ft 3 kts 88°
2026-05-04 19:58 -33.40416 -70.79006 1565 ft 3 kts 89°
2026-05-04 19:59 -33.40417 -70.78958 1565 ft 7 kts 88°
2026-05-04 19:59 -33.40414 -70.78887 1565 ft 9 kts 88°
2026-05-04 19:59 -33.40393 -70.78811 1565 ft 10 kts 77°
2026-05-04 19:59 -33.40362 -70.78741 1565 ft 10 kts 19°
2026-05-04 20:00 -33.40284 -70.78742 1565 ft 11 kts 358°
2026-05-04 20:00 -33.40198 -70.78746 1565 ft 13 kts 358°
2026-05-04 20:00 -33.40146 -70.78749 1565 ft 13 kts 357°
2026-05-04 20:00 -33.40081 -70.78753 1565 ft 13 kts 356°
2026-05-04 20:01 -33.39982 -70.78759 1566 ft 14 kts 359°
2026-05-04 20:01 -33.39875 -70.78763 1566 ft 15 kts 358°
2026-05-04 20:01 -33.39764 -70.78770 1566 ft 16 kts 358°
2026-05-04 20:01 -33.39647 -70.78777 1566 ft 17 kts 357°
2026-05-04 20:02 -33.39543 -70.78782 1566 ft 14 kts 358°
2026-05-04 20:02 -33.39440 -70.78787 1566 ft 15 kts 357°
2026-05-04 20:02 -33.39333 -70.78793 1566 ft 15 kts 358°
2026-05-04 20:02 -33.39220 -70.78799 1566 ft 16 kts 357°
2026-05-04 20:03 -33.39102 -70.78805 1566 ft 17 kts 358°
2026-05-04 20:03 -33.38980 -70.78812 1566 ft 17 kts 358°
2026-05-04 20:03 -33.38856 -70.78818 1566 ft 18 kts 357°
2026-05-04 20:03 -33.38726 -70.78825 1566 ft 18 kts 357°
2026-05-04 20:04 -33.38596 -70.78831 1566 ft 19 kts 357°
2026-05-04 20:04 -33.38462 -70.78839 1566 ft 19 kts 358°
2026-05-04 20:04 -33.38347 -70.78845 1566 ft 16 kts 357°
2026-05-04 20:04 -33.38230 -70.78851 1567 ft 17 kts 357°
2026-05-04 20:05 -33.38109 -70.78858 1567 ft 17 kts 358°
2026-05-04 20:05 -33.37984 -70.78864 1567 ft 18 kts 357°
2026-05-04 20:05 -33.37855 -70.78872 1567 ft 18 kts 358°
2026-05-04 20:05 -33.37739 -70.78878 1567 ft 13 kts 358°
2026-05-04 20:06 -33.37655 -70.78873 1567 ft 10 kts 25°
2026-05-04 20:06 -33.37621 -70.78793 1567 ft 11 kts 90°
2026-05-04 20:06 -33.37621 -70.78700 1567 ft 10 kts 89°
2026-05-04 20:06 -33.37637 -70.78669 1567 ft 4 kts 166°
2026-05-04 20:07 -33.37678 -70.78665 1567 ft 8 kts 177°
2026-05-04 20:07 -33.37890 -70.78655 1567 ft 64 kts 178°
2026-05-04 20:07 -33.38569 -70.78619 1567 ft 129 kts 177°
2026-05-04 20:07 -33.39659 -70.78561 1583 ft 180 kts 175°
2026-05-04 20:08 -33.40929 -70.78486 2107 ft 186 kts 175°
2026-05-04 20:08 -33.42243 -70.78401 2507 ft 195 kts 176°
2026-05-04 20:08 -33.43659 -70.78308 2784 ft 210 kts 176°
2026-05-04 20:08 -33.45170 -70.78213 3059 ft 225 kts 177°
2026-05-04 20:09 -33.46799 -70.78115 3248 ft 245 kts 178°
2026-05-04 20:09 -33.48550 -70.78014 3564 ft 261 kts 178°
2026-05-04 20:09 -33.50415 -70.77907 3955 ft 274 kts 177°
2026-05-04 20:09 -33.52341 -70.77794 4548 ft 278 kts 177°
2026-05-04 20:10 -33.54272 -70.77679 5166 ft 281 kts 177°
2026-05-04 20:10 -33.56245 -70.77563 5784 ft 283 kts 177°
2026-05-04 20:10 -33.58207 -70.77445 6375 ft 287 kts 177°
2026-05-04 20:10 -33.60213 -70.77320 6933 ft 291 kts 177°
2026-05-04 20:11 -33.62253 -70.77192 7480 ft 296 kts 177°
2026-05-04 20:11 -33.64318 -70.77062 7993 ft 299 kts 178°
2026-05-04 20:11 -33.66412 -70.76932 8577 ft 303 kts 178°
2026-05-04 20:11 -33.68523 -70.76801 9061 ft 307 kts 178°
2026-05-04 20:12 -33.70652 -70.76671 9589 ft 311 kts 179°
2026-05-04 20:12 -33.72821 -70.76537 10150 ft 314 kts 179°
2026-05-04 20:12 -33.75028 -70.76402 10499 ft 325 kts 179°
2026-05-04 20:12 -33.77343 -70.76256 10735 ft 339 kts 177°
2026-05-04 20:13 -33.79682 -70.75519 10927 ft 355 kts 152°
2026-05-04 20:13 -33.81570 -70.73592 11202 ft 366 kts 125°
2026-05-04 20:13 -33.82606 -70.70798 11478 ft 372 kts 98°
2026-05-04 20:13 -33.82685 -70.67673 11745 ft 379 kts 84°
2026-05-04 20:14 -33.82518 -70.64490 11939 ft 391 kts 84°
2026-05-04 20:14 -33.82345 -70.61179 12177 ft 403 kts 84°
2026-05-04 20:14 -33.82200 -70.57767 12402 ft 414 kts 85°
2026-05-04 20:14 -33.82081 -70.54333 12754 ft 418 kts 85°
2026-05-04 20:15 -33.81974 -70.50842 13278 ft 420 kts 85°
2026-05-04 20:15 -33.81871 -70.47298 13739 ft 424 kts 85°
2026-05-04 20:15 -33.81766 -70.43774 14134 ft 428 kts 86°
2026-05-04 20:15 -33.81657 -70.40168 14545 ft 431 kts 85°
2026-05-04 20:16 -33.81548 -70.36596 14964 ft 434 kts 85°
2026-05-04 20:16 -33.81435 -70.32928 15376 ft 438 kts 85°
2026-05-04 20:16 -33.81321 -70.29298 15756 ft 441 kts 85°
2026-05-04 20:16 -33.81205 -70.25609 16115 ft 445 kts 85°
2026-05-04 20:17 -33.81089 -70.21859 16511 ft 448 kts 84°
2026-05-04 20:17 -33.80973 -70.18156 16907 ft 451 kts 85°
2026-05-04 20:17 -33.80851 -70.14391 17275 ft 454 kts 84°
2026-05-04 20:17 -33.80726 -70.10576 17676 ft 456 kts 84°
2026-05-04 20:18 -33.80598 -70.06750 18124 ft 457 kts 85°
2026-05-04 20:18 -33.80476 -70.03020 18905 ft 448 kts 84°
2026-05-04 20:18 -33.80349 -69.99311 19722 ft 438 kts 84°
2026-05-04 20:18 -33.80223 -69.95698 20519 ft 428 kts 84°
2026-05-04 20:19 -33.80123 -69.92184 21261 ft 419 kts 86°
2026-05-04 20:19 -33.80188 -69.88705 21728 ft 419 kts 92°
2026-05-04 20:19 -33.80450 -69.85252 22059 ft 422 kts 96°
2026-05-04 20:19 -33.80807 -69.81699 22367 ft 425 kts 96°
2026-05-04 20:20 -33.81175 -69.78178 22525 ft 433 kts 96°
2026-05-04 20:20 -33.81551 -69.74587 22668 ft 440 kts 96°
2026-05-04 20:20 -33.81930 -69.70882 22797 ft 448 kts 96°
2026-05-04 20:20 -33.82308 -69.67132 22941 ft 455 kts 97°
2026-05-04 20:21 -33.82681 -69.63348 23079 ft 462 kts 96°
2026-05-04 20:21 -33.83060 -69.59520 23168 ft 469 kts 96°
2026-05-04 20:21 -33.83830 -69.51648 23394 ft 482 kts 96°
2026-05-04 20:22 -33.84221 -69.47647 23488 ft 488 kts 97°
2026-05-04 20:22 -33.84616 -69.43558 23587 ft 493 kts 96°
2026-05-04 20:22 -33.85014 -69.39443 23687 ft 499 kts 96°
2026-05-04 20:22 -33.85412 -69.35293 23792 ft 504 kts 96°
2026-05-04 20:23 -33.85812 -69.31124 23884 ft 508 kts 96°
2026-05-04 20:23 -33.86215 -69.26897 23986 ft 512 kts 96°
2026-05-04 20:23 -33.86623 -69.22603 24156 ft 514 kts 96°
2026-05-04 20:23 -33.87024 -69.18352 24430 ft 513 kts 96°
2026-05-04 20:24 -33.87423 -69.14121 24788 ft 511 kts 96°
2026-05-04 20:24 -33.87817 -69.09923 25115 ft 510 kts 96°
2026-05-04 20:24 -33.88213 -69.05669 25387 ft 509 kts 96°
2026-05-04 20:24 -33.88605 -69.01453 25719 ft 507 kts 96°
2026-05-04 20:25 -33.88992 -68.97276 26037 ft 506 kts 96°
2026-05-04 20:25 -33.89379 -68.93090 26345 ft 505 kts 96°
2026-05-04 20:25 -33.89521 -68.88893 26585 ft 504 kts 85°
2026-05-04 20:25 -33.89000 -68.84775 26850 ft 500 kts 73°
2026-05-04 20:26 -33.87833 -68.80859 27145 ft 495 kts 63°
2026-05-04 20:26 -33.86394 -68.77142 27468 ft 492 kts 61°
2026-05-04 20:26 -33.84906 -68.73457 27744 ft 492 kts 60°
2026-05-04 20:26 -33.83411 -68.69760 28002 ft 492 kts 61°
2026-05-04 20:27 -33.81925 -68.66058 28278 ft 492 kts 61°
2026-05-04 20:27 -33.80444 -68.62337 28583 ft 491 kts 61°
2026-05-04 20:27 -33.78999 -68.58689 28881 ft 490 kts 62°
2026-05-04 20:27 -33.77530 -68.54968 29164 ft 490 kts 61°
2026-05-04 20:28 -33.76075 -68.51277 29472 ft 489 kts 61°
2026-05-04 20:28 -33.74632 -68.47614 29781 ft 488 kts 61°
2026-05-04 20:28 -33.73179 -68.43934 30049 ft 487 kts 61°
2026-05-04 20:28 -33.71735 -68.40277 30290 ft 488 kts 61°
2026-05-04 20:29 -33.70287 -68.36616 30555 ft 488 kts 61°
2026-05-04 20:29 -33.68835 -68.32945 30806 ft 487 kts 61°
2026-05-04 20:29 -33.67380 -68.29255 31055 ft 487 kts 61°
2026-05-04 20:29 -33.65945 -68.25619 31304 ft 487 kts 61°
2026-05-04 20:30 -33.64498 -68.21963 31543 ft 487 kts 60°
2026-05-04 20:30 -33.63041 -68.18291 31774 ft 487 kts 60°
2026-05-04 20:30 -33.61591 -68.14644 32000 ft 486 kts 60°
2026-05-04 20:30 -33.60139 -68.10995 32241 ft 486 kts 60°
2026-05-04 20:31 -33.58673 -68.07322 32478 ft 486 kts 60°
2026-05-04 20:31 -33.57226 -68.03700 32695 ft 486 kts 60°
2026-05-04 20:31 -33.55764 -68.00044 32883 ft 486 kts 60°
2026-05-04 20:31 -33.54311 -67.96410 33081 ft 487 kts 60°
2026-05-04 20:32 -33.52842 -67.92744 33259 ft 488 kts 60°
2026-05-04 20:32 -33.51386 -67.89112 33412 ft 489 kts 60°
2026-05-04 20:32 -33.49908 -67.85425 33580 ft 490 kts 60°
2026-05-04 20:32 -33.48447 -67.81791 33763 ft 490 kts 60°
2026-05-04 20:33 -33.46971 -67.78127 33960 ft 490 kts 60°
2026-05-04 20:33 -33.45480 -67.74426 34117 ft 491 kts 60°
2026-05-04 20:33 -33.44000 -67.70754 34251 ft 493 kts 60°
2026-05-04 20:33 -33.42512 -67.67065 34407 ft 494 kts 60°
2026-05-04 20:34 -33.41019 -67.63371 34536 ft 495 kts 60°
2026-05-04 20:34 -33.39523 -67.59669 34683 ft 496 kts 60°
2026-05-04 20:34 -33.38020 -67.55963 34814 ft 497 kts 60°
2026-05-04 20:34 -33.36515 -67.52253 34826 ft 498 kts 60°
2026-05-04 20:35 -33.33493 -67.44804 34837 ft 498 kts 60°
2026-05-04 20:35 -33.30478 -67.37402 34833 ft 499 kts 60°
2026-05-04 20:36 -33.27448 -67.29959 34829 ft 499 kts 60°
2026-05-04 20:36 -33.24428 -67.22537 34828 ft 499 kts 60°
2026-05-04 20:37 -33.21378 -67.15063 34827 ft 500 kts 60°
2026-05-04 20:37 -33.18345 -67.07667 34828 ft 500 kts 59°
2026-05-04 20:38 -33.15281 -67.00217 34830 ft 500 kts 60°
2026-05-04 20:38 -33.12217 -66.92793 34833 ft 501 kts 60°
2026-05-04 20:39 -33.09150 -66.85377 34839 ft 502 kts 60°
2026-05-04 20:39 -33.06079 -66.77944 34849 ft 501 kts 60°
2026-05-04 20:40 -33.03014 -66.70529 34853 ft 500 kts 60°
2026-05-04 20:40 -32.99936 -66.63121 34862 ft 501 kts 60°
2026-05-04 20:41 -32.96836 -66.55681 34870 ft 501 kts 60°
2026-05-04 20:41 -32.93745 -66.48283 34868 ft 501 kts 60°
2026-05-04 20:42 -32.90646 -66.40881 34886 ft 502 kts 60°
2026-05-04 20:42 -32.87509 -66.33446 34901 ft 503 kts 59°
2026-05-04 20:43 -32.84385 -66.26035 34915 ft 503 kts 59°
2026-05-04 20:43 -32.81260 -66.18615 34935 ft 504 kts 59°
2026-05-04 20:44 -32.78131 -66.11201 34950 ft 503 kts 59°
2026-05-04 20:44 -32.74968 -66.03835 34982 ft 504 kts 59°
2026-05-04 20:45 -32.71738 -65.96434 34996 ft 503 kts 58°
2026-05-04 20:45 -32.68544 -65.89126 34980 ft 503 kts 58°
2026-05-04 20:46 -32.65324 -65.81767 34958 ft 503 kts 58°
2026-05-04 20:46 -32.62097 -65.74409 34935 ft 504 kts 59°
2026-05-04 20:47 -32.58875 -65.67069 34920 ft 504 kts 59°
2026-05-04 20:47 -32.55628 -65.59691 34914 ft 504 kts 59°
2026-05-04 20:48 -32.52403 -65.52376 34911 ft 504 kts 59°
2026-05-04 20:48 -32.49146 -65.45006 34902 ft 504 kts 59°
2026-05-04 20:49 -32.45917 -65.37717 34893 ft 504 kts 59°
2026-05-04 20:49 -32.42668 -65.30379 34883 ft 504 kts 58°
2026-05-04 20:50 -32.39404 -65.23019 34881 ft 505 kts 58°
2026-05-04 20:50 -32.36160 -65.15678 34879 ft 505 kts 59°
2026-05-04 20:51 -32.33026 -65.08295 34889 ft 505 kts 60°
2026-05-04 20:51 -32.29868 -65.00860 34906 ft 506 kts 59°
2026-05-04 20:52 -32.26714 -64.93473 34920 ft 506 kts 59°
2026-05-04 20:52 -32.23537 -64.86068 34920 ft 507 kts 59°
2026-05-04 20:53 -32.20353 -64.78662 34922 ft 506 kts 59°
2026-05-04 20:53 -32.17178 -64.71300 34926 ft 507 kts 59°
2026-05-04 20:54 -32.13969 -64.63871 34919 ft 507 kts 59°
2026-05-04 20:54 -32.10766 -64.56466 34915 ft 508 kts 59°
2026-05-04 20:55 -32.07569 -64.49097 34912 ft 509 kts 60°
2026-05-04 20:55 -32.04353 -64.41695 34908 ft 508 kts 59°
2026-05-04 20:56 -32.01140 -64.34317 34898 ft 508 kts 59°
2026-05-04 20:56 -31.97918 -64.26900 34880 ft 508 kts 59°
2026-05-04 20:57 -31.94694 -64.19508 34867 ft 509 kts 59°
2026-05-04 20:57 -31.91470 -64.12143 34850 ft 508 kts 59°
2026-05-04 20:58 -31.88219 -64.04770 34831 ft 508 kts 59°
2026-05-04 20:58 -31.84952 -63.97411 34830 ft 510 kts 59°
2026-05-04 20:59 -31.81686 -63.90022 34829 ft 510 kts 59°
2026-05-04 20:59 -31.78419 -63.82628 34832 ft 511 kts 59°
2026-05-04 21:00 -31.75092 -63.75291 34828 ft 511 kts 58°
2026-05-04 21:00 -31.71678 -63.68019 34824 ft 510 kts 58°
2026-05-04 21:01 -31.68268 -63.60767 34824 ft 510 kts 58°
2026-05-04 21:01 -31.64831 -63.53454 34826 ft 511 kts 58°
2026-05-04 21:02 -31.61422 -63.46198 34831 ft 511 kts 58°
2026-05-04 21:02 -31.58003 -63.38940 34837 ft 511 kts 58°
2026-05-04 21:03 -31.54564 -63.31647 34840 ft 513 kts 58°
2026-05-04 21:03 -31.51121 -63.24333 34840 ft 513 kts 57°
2026-05-04 21:04 -31.47657 -63.17023 34838 ft 513 kts 57°
2026-05-04 21:04 -31.44267 -63.09726 34839 ft 514 kts 59°
2026-05-04 21:05 -31.40927 -63.02292 34836 ft 515 kts 59°
2026-05-04 21:05 -31.37595 -62.94917 34840 ft 514 kts 59°
2026-05-04 21:06 -31.34238 -62.87542 34839 ft 515 kts 59°
2026-05-04 21:06 -31.30885 -62.80191 34839 ft 514 kts 59°
2026-05-04 21:07 -31.27510 -62.72815 34838 ft 514 kts 59°
2026-05-04 21:07 -31.24151 -62.65488 34839 ft 514 kts 59°
2026-05-04 21:08 -31.20780 -62.58125 34839 ft 515 kts 59°
2026-05-04 21:08 -31.17411 -62.50777 34840 ft 515 kts 59°
2026-05-04 21:09 -31.14028 -62.43434 34847 ft 515 kts 59°
2026-05-04 21:09 -31.10641 -62.36090 34846 ft 516 kts 59°
2026-05-04 21:10 -31.07272 -62.28783 34850 ft 515 kts 59°
2026-05-04 21:10 -31.03871 -62.21426 34851 ft 515 kts 58°
2026-05-04 21:11 -31.00473 -62.14086 34857 ft 516 kts 58°
2026-05-04 21:11 -30.97068 -62.06743 34852 ft 515 kts 59°
2026-05-04 21:12 -30.93669 -61.99439 34852 ft 515 kts 58°
2026-05-04 21:12 -30.90275 -61.92170 34854 ft 515 kts 59°
2026-05-04 21:13 -30.86830 -61.84860 34856 ft 515 kts 58°
2026-05-04 21:13 -30.83399 -61.77585 34859 ft 515 kts 58°
2026-05-04 21:14 -30.79967 -61.70287 34857 ft 515 kts 59°
2026-05-04 21:14 -30.76528 -61.62979 34861 ft 515 kts 59°
2026-05-04 21:15 -30.73112 -61.55731 34862 ft 515 kts 59°
2026-05-04 21:15 -30.69655 -61.48413 34864 ft 515 kts 59°
2026-05-04 21:16 -30.66198 -61.41185 34866 ft 515 kts 58°
2026-05-04 21:16 -30.62718 -61.33947 34864 ft 515 kts 58°
2026-05-04 21:17 -30.59244 -61.26702 34864 ft 516 kts 58°
2026-05-04 21:17 -30.55762 -61.19458 34872 ft 515 kts 58°
2026-05-04 21:18 -30.52253 -61.12186 34878 ft 515 kts 58°
2026-05-04 21:18 -30.48761 -61.04973 34880 ft 516 kts 58°
2026-05-04 21:19 -30.45247 -60.97729 34883 ft 517 kts 58°
2026-05-04 21:19 -30.41738 -60.90502 34886 ft 516 kts 58°
2026-05-04 21:20 -30.38225 -60.83289 34896 ft 515 kts 58°
2026-05-04 21:20 -30.34726 -60.76111 34898 ft 515 kts 58°
2026-05-04 21:21 -30.31194 -60.68883 34893 ft 515 kts 58°
2026-05-04 21:21 -30.27673 -60.61693 34891 ft 515 kts 58°
2026-05-04 21:22 -30.24166 -60.54544 34891 ft 515 kts 58°
2026-05-04 21:22 -30.20620 -60.47333 34893 ft 515 kts 58°
2026-05-04 21:23 -30.17296 -60.40024 34886 ft 516 kts 64°
2026-05-04 21:23 -30.14681 -60.32356 34886 ft 518 kts 69°
2026-05-04 21:24 -30.12231 -60.24520 34890 ft 517 kts 69°
2026-05-04 21:24 -30.09772 -60.16734 34893 ft 518 kts 69°
2026-05-04 21:25 -30.07289 -60.08969 34892 ft 518 kts 69°
2026-05-04 21:25 -30.04788 -60.01184 34892 ft 518 kts 69°
2026-05-04 21:26 -30.02291 -59.93431 34895 ft 518 kts 69°
2026-05-04 21:26 -29.99789 -59.85688 34904 ft 518 kts 69°
2026-05-04 21:27 -29.97272 -59.77914 34903 ft 517 kts 69°
2026-05-04 21:27 -29.94760 -59.70173 34899 ft 516 kts 69°
2026-05-04 21:28 -29.92254 -59.62464 34898 ft 516 kts 69°
2026-05-04 21:28 -29.89730 -59.54729 34902 ft 515 kts 69°
2026-05-04 21:29 -29.87203 -59.47076 34906 ft 515 kts 69°
2026-05-04 21:29 -29.84661 -59.39371 34903 ft 515 kts 69°
2026-05-04 21:30 -29.82131 -59.31666 34908 ft 515 kts 69°
2026-05-04 21:30 -29.79616 -59.23991 34908 ft 515 kts 69°
2026-05-04 21:31 -29.75821 -59.12469 34910 ft 515 kts 69°
2026-05-04 21:32 -29.73275 -59.04775 34916 ft 515 kts 69°
2026-05-04 21:32 -29.70734 -58.97123 34919 ft 515 kts 68°
2026-05-04 21:33 -29.68182 -58.89451 34915 ft 515 kts 69°
2026-05-04 21:33 -29.65695 -58.81743 34916 ft 515 kts 70°
2026-05-04 21:34 -29.63270 -58.74064 34922 ft 514 kts 70°
2026-05-04 21:34 -29.60808 -58.66326 34922 ft 514 kts 70°
2026-05-04 21:35 -29.58356 -58.58653 34926 ft 514 kts 70°
2026-05-04 21:35 -29.55905 -58.51017 34932 ft 514 kts 70°
2026-05-04 21:36 -29.53428 -58.43311 34928 ft 513 kts 70°
2026-05-04 21:36 -29.50957 -58.35645 34936 ft 513 kts 70°
2026-05-04 21:37 -29.48493 -58.27999 34929 ft 512 kts 70°
2026-05-04 21:37 -29.46025 -58.20367 34942 ft 513 kts 69°
2026-05-04 21:38 -29.43540 -58.12722 34938 ft 513 kts 69°
2026-05-04 21:38 -29.40962 -58.05093 34935 ft 513 kts 67°
2026-05-04 21:39 -29.38189 -57.97589 34939 ft 513 kts 66°
2026-05-04 21:39 -29.35407 -57.90127 34938 ft 513 kts 66°
2026-05-04 21:40 -29.32607 -57.82613 34948 ft 513 kts 67°
2026-05-04 21:40 -29.29820 -57.75148 34959 ft 512 kts 67°
2026-05-04 21:41 -29.27020 -57.67663 34954 ft 512 kts 67°
2026-05-04 21:41 -29.24213 -57.60141 34954 ft 512 kts 68°
2026-05-04 21:42 -29.21608 -57.52605 34953 ft 512 kts 69°
2026-05-04 21:42 -29.19033 -57.45069 34960 ft 512 kts 69°
2026-05-04 21:43 -29.16410 -57.37473 34952 ft 512 kts 69°
2026-05-04 21:43 -29.13800 -57.29935 34957 ft 512 kts 68°
2026-05-04 21:44 -29.11179 -57.22389 34956 ft 513 kts 68°
2026-05-04 21:44 -29.08542 -57.14830 34958 ft 512 kts 68°
2026-05-04 21:45 -29.05906 -57.07291 34953 ft 512 kts 68°
2026-05-04 21:45 -29.03320 -56.99925 34956 ft 512 kts 68°
2026-05-04 21:46 -29.00663 -56.92369 34962 ft 512 kts 68°
2026-05-04 21:46 -28.98028 -56.84890 34961 ft 511 kts 68°
2026-05-04 21:47 -28.95360 -56.77336 34964 ft 512 kts 68°
2026-05-04 21:47 -28.92713 -56.69860 34960 ft 512 kts 68°
2026-05-04 21:48 -28.90040 -56.62338 34965 ft 512 kts 68°
2026-05-04 21:48 -28.87350 -56.54843 34968 ft 512 kts 68°
2026-05-04 21:49 -28.84679 -56.47359 34969 ft 512 kts 68°
2026-05-04 21:49 -28.82015 -56.39867 34975 ft 512 kts 68°
2026-05-04 21:50 -28.79327 -56.32338 34971 ft 511 kts 68°
2026-05-04 21:50 -28.76656 -56.24840 34979 ft 512 kts 68°
2026-05-04 21:51 -28.73965 -56.17336 34976 ft 512 kts 68°
2026-05-04 21:51 -28.71315 -56.09864 34971 ft 511 kts 69°
2026-05-04 21:52 -28.68723 -56.02354 34979 ft 512 kts 69°
2026-05-04 21:52 -28.66122 -55.94840 34980 ft 512 kts 69°
2026-05-04 21:53 -28.63501 -55.87320 34983 ft 512 kts 69°
2026-05-04 21:53 -28.60879 -55.79823 34985 ft 513 kts 69°
2026-05-04 21:54 -28.58240 -55.72293 34984 ft 513 kts 69°
2026-05-04 21:54 -28.55611 -55.64814 34986 ft 512 kts 69°
2026-05-04 21:55 -28.52968 -55.57278 34985 ft 513 kts 69°
2026-05-04 21:55 -28.50325 -55.49764 34982 ft 513 kts 69°
2026-05-04 21:56 -28.47699 -55.42317 34990 ft 512 kts 69°
2026-05-04 21:56 -28.45040 -55.34801 35000 ft 512 kts 69°
2026-05-04 21:57 -28.42400 -55.27329 34999 ft 513 kts 69°
2026-05-04 21:57 -28.39750 -55.19851 35002 ft 512 kts 68°
2026-05-04 21:58 -28.37074 -55.12331 35002 ft 512 kts 69°
2026-05-04 21:58 -28.34411 -55.04866 35008 ft 512 kts 68°
2026-05-04 21:59 -28.31737 -54.97390 35012 ft 512 kts 69°
2026-05-04 21:59 -28.29067 -54.89939 35013 ft 512 kts 69°
2026-05-04 22:00 -28.26384 -54.82477 35012 ft 511 kts 68°
2026-05-04 22:00 -28.23720 -54.75085 35018 ft 511 kts 69°
2026-05-04 22:01 -28.21032 -54.67604 35020 ft 511 kts 69°
2026-05-04 22:01 -28.18361 -54.60179 35024 ft 512 kts 69°
2026-05-04 22:02 -28.15680 -54.52755 35028 ft 512 kts 69°
2026-05-04 22:02 -28.12982 -54.45311 35033 ft 512 kts 69°
2026-05-04 22:03 -28.10278 -54.37860 35037 ft 513 kts 69°
2026-05-04 22:03 -28.07556 -54.30377 35037 ft 512 kts 68°
2026-05-04 22:04 -28.04864 -54.22961 35049 ft 513 kts 68°
2026-05-04 22:04 -28.02156 -54.15546 35057 ft 513 kts 68°
2026-05-04 22:05 -27.99421 -54.08073 35057 ft 512 kts 68°
2026-05-04 22:05 -27.96693 -54.00637 35062 ft 512 kts 69°
2026-05-04 22:06 -27.93972 -53.93235 35068 ft 513 kts 68°
2026-05-04 22:06 -27.91231 -53.85796 35070 ft 512 kts 68°
2026-05-04 22:07 -27.88498 -53.78419 35073 ft 512 kts 68°
2026-05-04 22:07 -27.85723 -53.70994 35082 ft 511 kts 68°
2026-05-04 22:08 -27.82984 -53.63630 35085 ft 512 kts 68°
2026-05-04 22:08 -27.80223 -53.56206 35089 ft 512 kts 69°
2026-05-04 22:09 -27.77474 -53.48814 35083 ft 512 kts 69°
2026-05-04 22:09 -27.74730 -53.41448 35093 ft 512 kts 69°
2026-05-04 22:10 -27.71973 -53.34066 35091 ft 511 kts 68°
2026-05-04 22:10 -27.69229 -53.26699 35094 ft 511 kts 68°
2026-05-04 22:11 -27.66467 -53.19322 35094 ft 511 kts 68°
2026-05-04 22:11 -27.63705 -53.11973 35095 ft 512 kts 68°
2026-05-04 22:12 -27.60933 -53.04613 35098 ft 511 kts 68°
2026-05-04 22:12 -27.58151 -52.97224 35099 ft 512 kts 68°
2026-05-04 22:13 -27.55376 -52.89865 35097 ft 511 kts 68°
2026-05-04 22:13 -27.52593 -52.82505 35111 ft 511 kts 68°
2026-05-04 22:14 -27.49823 -52.75192 35121 ft 511 kts 68°
2026-05-04 22:14 -27.47035 -52.67863 35126 ft 512 kts 68°
2026-05-04 22:15 -27.44227 -52.60499 35127 ft 512 kts 68°
2026-05-04 22:15 -27.41433 -52.53168 35131 ft 511 kts 69°
2026-05-04 22:16 -27.38645 -52.45844 35131 ft 512 kts 69°
2026-05-04 22:16 -27.35840 -52.38509 35128 ft 512 kts 69°
2026-05-04 22:17 -27.33019 -52.31146 35120 ft 511 kts 68°
2026-05-04 22:17 -27.30215 -52.23819 35116 ft 512 kts 68°
2026-05-04 22:18 -27.27393 -52.16488 35126 ft 512 kts 68°
2026-05-04 22:18 -27.24563 -52.09165 35132 ft 512 kts 68°
2026-05-04 22:19 -27.21744 -52.01876 35142 ft 512 kts 68°
2026-05-04 22:19 -27.18913 -51.94575 35159 ft 511 kts 68°
2026-05-04 22:20 -27.16075 -51.87264 35168 ft 512 kts 68°
2026-05-04 22:20 -27.13237 -51.79936 35172 ft 513 kts 68°
2026-05-04 22:21 -27.10403 -51.72646 35183 ft 512 kts 68°
2026-05-04 22:21 -27.07547 -51.65331 35183 ft 512 kts 68°
2026-05-04 22:22 -27.04707 -51.58074 35184 ft 511 kts 68°
2026-05-04 22:22 -27.01837 -51.50755 35199 ft 510 kts 68°
2026-05-04 22:23 -26.98990 -51.43513 35200 ft 510 kts 68°
2026-05-04 22:23 -26.96140 -51.36268 35209 ft 510 kts 68°
2026-05-04 22:24 -26.93282 -51.29001 35210 ft 510 kts 68°
2026-05-04 22:24 -26.90422 -51.21738 35223 ft 510 kts 68°
2026-05-04 22:25 -26.87528 -51.14478 35230 ft 510 kts 68°
2026-05-04 22:25 -26.84652 -51.07284 35227 ft 509 kts 68°
2026-05-04 22:26 -26.81768 -51.00037 35228 ft 510 kts 68°
2026-05-04 22:26 -26.78902 -50.92835 35226 ft 510 kts 68°
2026-05-04 22:27 -26.76011 -50.85583 35235 ft 510 kts 68°
2026-05-04 22:27 -26.73134 -50.78374 35243 ft 509 kts 68°
2026-05-04 22:28 -26.70244 -50.71155 35243 ft 509 kts 68°
2026-05-04 22:28 -26.67352 -50.63948 35245 ft 510 kts 68°
2026-05-04 22:29 -26.64464 -50.56768 35237 ft 509 kts 68°
2026-05-04 22:29 -26.61584 -50.49554 35238 ft 509 kts 68°
2026-05-04 22:30 -26.58725 -50.42298 35228 ft 510 kts 68°
2026-05-04 22:30 -26.55871 -50.35099 35222 ft 510 kts 68°
2026-05-04 22:31 -26.52974 -50.27887 35215 ft 510 kts 67°
2026-05-04 22:31 -26.50046 -50.20659 35208 ft 511 kts 67°
2026-05-04 22:32 -26.47123 -50.13469 35204 ft 510 kts 67°
2026-05-04 22:32 -26.44213 -50.06316 35200 ft 510 kts 67°
2026-05-04 22:33 -26.41269 -49.99096 35203 ft 510 kts 67°
2026-05-04 22:33 -26.38348 -49.91948 35207 ft 510 kts 67°
2026-05-04 22:34 -26.35401 -49.84753 35213 ft 510 kts 67°
2026-05-04 22:34 -26.32471 -49.77576 35216 ft 510 kts 67°
2026-05-04 22:35 -26.29562 -49.70393 35217 ft 510 kts 67°
2026-05-04 22:35 -26.26638 -49.63215 35218 ft 510 kts 67°
2026-05-04 22:36 -26.23706 -49.56031 35223 ft 510 kts 67°
2026-05-04 22:36 -26.20771 -49.48867 35228 ft 510 kts 67°
2026-05-04 22:37 -26.17820 -49.41715 35231 ft 510 kts 67°
2026-05-04 22:37 -26.14869 -49.34586 35235 ft 510 kts 66°
2026-05-04 22:38 -26.11506 -49.27673 35224 ft 511 kts 52°
2026-05-04 22:38 -26.09035 -49.24869 35229 ft 507 kts 34°
2026-05-04 22:38 -26.06095 -49.22666 35244 ft 506 kts 29°
2026-05-04 22:39 -26.00096 -49.18660 35243 ft 505 kts 27°
2026-05-04 22:39 -25.94019 -49.14662 35246 ft 506 kts 27°
2026-05-04 22:40 -25.87978 -49.10653 35244 ft 506 kts 28°
2026-05-04 22:40 -25.81967 -49.06668 35241 ft 506 kts 28°
2026-05-04 22:41 -25.75934 -49.02655 35237 ft 506 kts 28°
2026-05-04 22:41 -25.69879 -48.98624 35238 ft 505 kts 28°
2026-05-04 22:42 -25.63860 -48.94627 35235 ft 505 kts 28°
2026-05-04 22:42 -25.57850 -48.90647 35232 ft 506 kts 28°
2026-05-04 22:43 -25.51779 -48.86633 35226 ft 506 kts 28°
2026-05-04 22:43 -25.45762 -48.82692 35213 ft 505 kts 26°
2026-05-04 22:44 -25.39579 -48.78933 35196 ft 505 kts 25°
2026-05-04 22:44 -25.33428 -48.75231 35182 ft 505 kts 26°
2026-05-04 22:45 -25.27297 -48.71514 35178 ft 505 kts 26°
2026-05-04 22:45 -25.18032 -48.65909 35182 ft 505 kts 26°
2026-05-04 22:46 -25.11874 -48.62204 35194 ft 505 kts 26°
2026-05-04 22:46 -25.05709 -48.58503 35212 ft 504 kts 26°
2026-05-04 22:47 -24.99535 -48.54798 35233 ft 503 kts 26°
2026-05-04 22:47 -24.93416 -48.51096 35236 ft 503 kts 26°
2026-05-04 22:48 -24.87275 -48.47380 35216 ft 503 kts 26°
2026-05-04 22:48 -24.81115 -48.43676 35195 ft 503 kts 26°
2026-05-04 22:49 -24.74971 -48.39978 35179 ft 504 kts 26°
2026-05-04 22:49 -24.68823 -48.36276 35176 ft 505 kts 26°
2026-05-04 22:50 -24.62635 -48.32540 35169 ft 505 kts 26°
2026-05-04 22:50 -24.57543 -48.29454 35165 ft 504 kts 25°
2026-05-04 22:51 -24.51643 -48.25904 35165 ft 504 kts 25°
2026-05-04 22:51 -24.45485 -48.22217 35165 ft 504 kts 25°
2026-05-04 22:52 -24.39336 -48.18543 35169 ft 505 kts 25°
2026-05-04 22:52 -24.33190 -48.14870 35165 ft 504 kts 25°
2026-05-04 22:53 -24.26991 -48.11198 35169 ft 505 kts 25°
2026-05-04 22:53 -24.20843 -48.07576 35170 ft 505 kts 25°
2026-05-04 22:54 -24.14618 -48.03914 35171 ft 505 kts 25°
2026-05-04 22:54 -24.08452 -48.00288 35181 ft 505 kts 25°
2026-05-04 22:55 -24.02283 -47.96667 35196 ft 504 kts 25°
2026-05-04 22:55 -23.96095 -47.93039 35208 ft 504 kts 25°
2026-05-04 22:56 -23.92976 -47.91214 34574 ft 508 kts 25°
2026-05-04 22:56 -23.89884 -47.89406 33836 ft 507 kts 25°
2026-05-04 22:56 -23.86773 -47.87594 33118 ft 506 kts 25°
2026-05-04 22:56 -23.83660 -47.85780 32394 ft 506 kts 25°
2026-05-04 22:57 -23.80582 -47.83944 31660 ft 507 kts 27°
2026-05-04 22:57 -23.77576 -47.81877 30904 ft 508 kts 32°
2026-05-04 22:57 -23.74751 -47.79594 30156 ft 510 kts 37°
2026-05-04 22:57 -23.72070 -47.77058 29389 ft 511 kts 41°
2026-05-04 22:58 -23.69505 -47.74374 28596 ft 511 kts 43°
2026-05-04 22:58 -23.66994 -47.71690 27803 ft 511 kts 43°
2026-05-04 22:58 -23.64449 -47.68977 27004 ft 510 kts 43°
2026-05-04 22:58 -23.61913 -47.66293 26798 ft 504 kts 43°
2026-05-04 22:59 -23.59401 -47.63647 26687 ft 506 kts 43°
2026-05-04 22:59 -23.56856 -47.60972 26491 ft 506 kts 43°
2026-05-04 22:59 -23.54324 -47.58315 26256 ft 506 kts 43°
2026-05-04 22:59 -23.51805 -47.55673 26028 ft 506 kts 43°
2026-05-04 23:00 -23.49267 -47.53013 25804 ft 506 kts 43°
2026-05-04 23:00 -23.46725 -47.50350 25567 ft 506 kts 43°
2026-05-04 23:00 -23.44176 -47.47683 25343 ft 506 kts 43°
2026-05-04 23:00 -23.41653 -47.45042 25210 ft 506 kts 43°
2026-05-04 23:01 -23.39132 -47.42404 25203 ft 506 kts 43°
2026-05-04 23:01 -23.36608 -47.39762 25199 ft 506 kts 43°
2026-05-04 23:01 -23.34069 -47.37105 25199 ft 506 kts 43°
2026-05-04 23:01 -23.31506 -47.34425 25200 ft 506 kts 43°
2026-05-04 23:02 -23.28985 -47.31778 25179 ft 506 kts 43°
2026-05-04 23:02 -23.26436 -47.29102 24660 ft 508 kts 43°
2026-05-04 23:02 -23.23881 -47.26429 23982 ft 503 kts 43°
2026-05-04 23:02 -23.21385 -47.23827 23496 ft 494 kts 43°
2026-05-04 23:03 -23.18935 -47.21276 22936 ft 487 kts 43°
2026-05-04 23:03 -23.16507 -47.18750 21967 ft 490 kts 43°
2026-05-04 23:03 -23.14057 -47.16122 20975 ft 492 kts 45°
2026-05-04 23:03 -23.11756 -47.13441 20367 ft 485 kts 46°
2026-05-04 23:04 -23.09491 -47.10772 19872 ft 476 kts 46°
2026-05-04 23:04 -23.07290 -47.08170 19393 ft 467 kts 46°
2026-05-04 23:04 -23.05101 -47.05586 18918 ft 458 kts 46°
2026-05-04 23:04 -23.02979 -47.03085 18462 ft 450 kts 46°
2026-05-04 23:05 -23.00862 -47.00595 17899 ft 435 kts 46°
2026-05-04 23:05 -22.98863 -46.98245 17297 ft 417 kts 46°
2026-05-04 23:05 -22.96937 -46.95985 16826 ft 397 kts 46°
2026-05-04 23:05 -22.95107 -46.93838 16427 ft 378 kts 46°
2026-05-04 23:06 -22.93379 -46.91810 16055 ft 362 kts 46°
2026-05-04 23:06 -22.91702 -46.89843 15747 ft 350 kts 46°
2026-05-04 23:06 -22.90088 -46.87925 15536 ft 341 kts 49°
2026-05-04 23:06 -22.88950 -46.85692 15192 ft 336 kts 76°
2026-05-04 23:07 -22.88889 -46.83192 14882 ft 327 kts 105°
2026-05-04 23:07 -22.89861 -46.81062 14514 ft 318 kts 134°
2026-05-04 23:07 -22.91554 -46.79563 14325 ft 312 kts 148°
2026-05-04 23:07 -22.93348 -46.78200 14261 ft 316 kts 147°
2026-05-04 23:08 -22.95156 -46.76819 14042 ft 318 kts 147°
2026-05-04 23:08 -22.96942 -46.75401 13653 ft 317 kts 146°
2026-05-04 23:08 -22.98688 -46.73967 13289 ft 315 kts 144°
2026-05-04 23:08 -23.00346 -46.72577 12949 ft 312 kts 144°
2026-05-04 23:09 -23.02109 -46.71081 12599 ft 309 kts 143°
2026-05-04 23:09 -23.03789 -46.69647 12256 ft 307 kts 143°
2026-05-04 23:09 -23.04912 -46.68685 12024 ft 305 kts 143°
2026-05-04 23:09 -23.07135 -46.66776 11561 ft 303 kts 143°
2026-05-04 23:10 -23.08772 -46.65370 11222 ft 301 kts 143°
2026-05-04 23:10 -23.10407 -46.63963 10879 ft 298 kts 143°
2026-05-04 23:10 -23.12035 -46.62571 10544 ft 296 kts 143°
2026-05-04 23:10 -23.13640 -46.61198 10211 ft 294 kts 143°
2026-05-04 23:11 -23.15237 -46.59830 9877 ft 292 kts 143°
2026-05-04 23:11 -23.16830 -46.58461 9545 ft 290 kts 142°
2026-05-04 23:11 -23.18418 -46.57096 9247 ft 287 kts 142°
2026-05-04 23:11 -23.20041 -46.55960 9133 ft 274 kts 163°
2026-05-04 23:12 -23.21895 -46.55840 8942 ft 265 kts 196°
2026-05-04 23:12 -23.23515 -46.56706 8638 ft 260 kts 216°
2026-05-04 23:12 -23.25014 -46.57836 8334 ft 262 kts 216°
2026-05-04 23:12 -23.26522 -46.58958 8030 ft 262 kts 216°
2026-05-04 23:13 -23.28035 -46.60055 8000 ft 261 kts 215°
2026-05-04 23:13 -23.29545 -46.61139 7984 ft 262 kts 215°
2026-05-04 23:13 -23.31093 -46.62244 7658 ft 263 kts 215°
2026-05-04 23:13 -23.32391 -46.63167 7390 ft 261 kts 215°
2026-05-04 23:14 -23.34051 -46.64345 7053 ft 258 kts 215°
2026-05-04 23:14 -23.35550 -46.65410 6753 ft 258 kts 215°
2026-05-04 23:14 -23.37048 -46.66476 6453 ft 258 kts 216°
2026-05-04 23:14 -23.38557 -46.67549 6151 ft 257 kts 216°
2026-05-04 23:15 -23.40039 -46.68604 6011 ft 252 kts 215°
2026-05-04 23:15 -23.41585 -46.69532 5990 ft 253 kts 197°
2026-05-04 23:15 -23.43324 -46.69503 5992 ft 254 kts 159°
2026-05-04 23:15 -23.44720 -46.68400 5827 ft 248 kts 125°
2026-05-04 23:16 -23.45576 -46.66788 5573 ft 243 kts 115°
2026-05-04 23:16 -23.46333 -46.65160 5330 ft 239 kts 117°
2026-05-04 23:16 -23.47145 -46.63608 5172 ft 229 kts 120°
2026-05-04 23:16 -23.47743 -46.62082 4936 ft 218 kts 97°
2026-05-04 23:17 -23.47516 -46.60487 4628 ft 209 kts 67°
2026-05-04 23:17 -23.46924 -46.59096 4337 ft 199 kts 64°
2026-05-04 23:17 -23.46411 -46.57771 4118 ft 182 kts 69°
2026-05-04 23:17 -23.46001 -46.56514 3865 ft 168 kts 72°
2026-05-04 23:18 -23.45671 -46.55341 3649 ft 161 kts 74°
2026-05-04 23:18 -23.45357 -46.54163 3449 ft 161 kts 75°
2026-05-04 23:18 -23.45045 -46.53000 3250 ft 160 kts 74°
2026-05-04 23:18 -23.44731 -46.51843 3048 ft 160 kts 74°
2026-05-04 23:19 -23.44415 -46.50678 2842 ft 159 kts 75°
2026-05-04 23:19 -23.44102 -46.49516 2636 ft 158 kts 75°
2026-05-04 23:19 -23.43793 -46.48382 2467 ft 158 kts 74°
2026-05-04 23:19 -23.43507 -46.47316 2450 ft 115 kts 75°
2026-05-04 23:20 -23.43361 -46.46777 2450 ft 47 kts 74°
2026-05-04 23:20 -23.43290 -46.46515 2450 ft 29 kts 69°
2026-05-04 23:20 -23.43186 -46.46332 2450 ft 27 kts 46°
2026-05-04 23:20 -23.43066 -46.46206 2450 ft 20 kts 44°
2026-05-04 23:21 -23.42960 -46.46135 2450 ft 17 kts 349°
2026-05-04 23:21 -23.42837 -46.46176 2448 ft 19 kts 346°
2026-05-04 23:21 -23.42711 -46.46214 2449 ft 15 kts 343°
2026-05-04 23:21 -23.42624 -46.46251 2449 ft 12 kts 314°
2026-05-04 23:22 -23.42632 -46.46348 2447 ft 14 kts 254°
2026-05-04 23:22 -23.42663 -46.46464 2445 ft 17 kts 254°
2026-05-04 23:22 -23.42698 -46.46592 2445 ft 17 kts 253°
2026-05-04 23:22 -23.42734 -46.46723 2443 ft 19 kts 253°
2026-05-04 23:23 -23.42771 -46.46864 2443 ft 19 kts 254°
2026-05-04 23:23 -23.42809 -46.47004 2444 ft 19 kts 253°
2026-05-04 23:23 -23.42846 -46.47141 2444 ft 18 kts 253°
2026-05-04 23:23 -23.42882 -46.47274 2444 ft 15 kts 253°
2026-05-04 23:24 -23.42914 -46.47393 2444 ft 16 kts 253°
2026-05-04 23:24 -23.42947 -46.47516 2444 ft 17 kts 254°
2026-05-04 23:24 -23.42981 -46.47642 2444 ft 17 kts 254°
2026-05-04 23:24 -23.43012 -46.47754 2444 ft 10 kts 254°
2026-05-04 23:25 -23.42984 -46.47816 2444 ft 10 kts 339°
2026-05-04 23:25 -23.42913 -46.47832 2444 ft 10 kts 350°
2026-05-04 23:25 -23.42835 -46.47848 2444 ft 11 kts 349°
2026-05-04 23:25 -23.42782 -46.47865 2444 ft 5 kts 316°
2026-05-04 23:26 -23.42776 -46.47896 2445 ft 3 kts 262°
2026-05-04 23:26 -23.42780 -46.47926 2445 ft 4 kts 264°
2026-05-04 23:26 -23.42782 -46.47951 2446 ft 2 kts 265°
2026-05-04 23:26 -23.42782 -46.47959 2446 ft 0 kts 265°